Location: Unspecified
(0.0000°N, 0.0000°E)
Time: 23:14:28
(UTC+00:00)

ATLAS 5 CENTAUR R/B DEB - Pass Details

Date: 30 April 2025
Orbit: 8950 x 34203 km, 12.6° (Epoch: 13 May)

Event Time Altitude Azimuth Distance (km) Brightness Sun altitude
Rises 13:15:32 0° 256° (WSW) 14,627 ? 65.5°
Reaches altitude 10° 13:24:29 10° 256° (WSW) 14,189 ? 63.8°
Maximum altitude 15:47:57 83° 319° (NW) 25,049 ? 31.1°
Drops below altitude 10° 01:31:35 10° 101° (E) 13,319 ? -62.2°
Sets 01:40:01 0° 102° (ESE) 14,062 ? -60.4°
